星链-30356 (STARLINK-30356 )

导读

STARLINK-30356是美国SpaceX星链互联网卫星星座的一员,于2023年9月1日发射入轨。星链项目旨在为全球提供低延迟、高速率的宽带互联网服务,该卫星承担着组网运营任务,依托近地轨道部署,持续补全星链星座的全球覆盖能力,服务地面用户网络接入需求。

基本信息
目录编号:
57748
目录名称:
STARLINK-30356
国际标识:
2023-131S
轨道中心:
EARTH
卫星名称:
星链-30356
卫星全名:
星链-30356 (STARLINK-30356 )
卫星状态:
在轨 (已飞行1021 天)
发射日期:
2023-09-01 UTC
国别 :
美国 (US)
星等 :
--
轨道信息
数据来源 国际轨道数据
星历时间: 2026-06-16T12:23:38+0800
2天前
查看轨道信息
半长轴: 6861.198km
偏心率: 0.0001223
轨道倾角: 43.007°
近地点辐角 267.813°
升交点赤经 335.885°
平近点角 92.258°
近地点: 482.221km
远地点: 483.901km
周期: 94.267分钟
每日圈数: 15.275763
详细信息
固有亮度:
5
最大亮度:
0.3
卫星平台:
Starlink v2.0 mini
覆盖范围:
全球
运营商:
太空探索技术公司
运营商所在国:
美国
制造商(研发单位):
太空探索技术公司
制造商所在国:
美国
使用方式:
暂无
卫星简介
星链(Starlink)计划是由太空探索技术公司(SpaceX)提出的一个巨型低轨卫星互联网星座项目,计划在2019年至2024年间在太空搭建由约1.2万颗卫星组成的“星链”网络,其中1584颗将部署在地球上空550千米处的近地轨道,并从2020年开始工作。该卫星仍在工作。
2D轨道图
3D轨道图
轨道高度分析图
轨道倾角分析图
轨道综合分析图
查看轨道综合分析图